Location: Nebel
(54.6502°N, 8.3475°E)
Time: 22:46:29
(UTC+01:00)

Envisat - Pass Details

Date: 08 December 2022
Orbit: 763 x 765 km, 98.2° (Epoch: 01 February)

Event Time Altitude Azimuth Distance (km) Brightness Sun altitude
Rises 05:30:22 0° 13° (NNE) 3,248 6.4 -25.2°
Reaches altitude 10° 05:32:43 10° 9° (N) 2,318 5.5 -24.9°
Enters shadow 05:36:13 40° 344° (NNW) 1,122 3.6 -24.4°
